Tracking 29892 objects as of 21-Nov-2024
HD Live streaming from Space Station
objects crossing your sky now

FENGYUN 1C DEB

Track FENGYUN 1C DEB now!
10-day predictions


NORAD ID: 31524
Int'l Code: 1999-025BXP
Perigee: 675.4 km
Apogee: 1,084.1 km
Inclination: 99.3 °
Period: 102.4 minutes
Semi major axis: 7250 km
RCS: 0.0099 m2 (small)
Launch date: May 10, 1999
Source: People's Republic of China (PRC)
Launch site: Taiyaun Space Center, China (TSC)

Note: This is SATELLITE DEBRIS
Your satellite tracking list
Your tracking list is empty




NASA's NSSDC Master Catalog

Two Line Element Set (TLE):
1 31524U 99025BXP 24325.11606358  .00000897  00000-0  40154-3 0  9997
2 31524  99.3291 188.0594 0281789 117.0980  31.7650 14.06140245577015
Source of the keplerian elements: AFSPC